Regional Weather Roundup
Issued by NWS Sioux Falls, SD

Home | Current Version | Previous Version | Text Only | Print | Product List | Glossary Off
Versions: 1 2 3 4 5 6 7 8 9 10 11 12 13 14 15 16 17 18 19 20 21 22 23 24 25 26 27 28 29 30 31 32 33 34 35 36 37 38 39 40 41 42 43 44 45 46 47 48 49 50

000
ASUS43 KFSD 120602
RWRFSD

WEATHER ROUNDUP FOR SE SOUTH DAKOTA/SW MINNESOTA/NW IOWA
NATIONAL WEATHER SERVICE SIOUX FALLS SD
1200 AM CST FRI FEB 12 2016

NOTE: "FAIR" INDICATES FEW OR NO CLOUDS BELOW 12,000 FEET WITH NO
SIGNIFICANT WEATHER AND OR OBSTRUCTIONS TO VISIBILITY.


SDZ038>040-050-052>070-120700-
SOUTHEAST SOUTH DAKOTA

CITY           SKY/WX    TMP DP  RH WIND       PRES   REMARKS
BROOKINGS      FLURRIES  17  14  88 N10       30.21S WCI   5
CHAMBERLAIN    NOT AVBL
HURON          CLOUDY    18  14  84 N12       30.28R WCI   5
6HR MIN TEMP:  17; 6HR MAX TEMP:  23; 6HR PCP: TRACE;

MADISON        CLOUDY    18  18 100 N8        30.21F WCI   7
MITCHELL       CLOUDY    20  18  92 NW6       30.27S WCI  12
6HR MIN TEMP:  15; 6HR MAX TEMP:  21; 6HR PCP: TRACE;

SIOUX FALLS    LGT SNOW  13  10  88 CALM      30.24S FOG
6HR MIN TEMP:   6; 6HR MAX TEMP:  18; 6HR PCP: TRACE;

WINNER         FAIR      25  21  85 W6        30.24R WCI  18
YANKTON        CLOUDY    18  16  93 NW7       30.27R WCI   8
$$

MNZ071-072-080-081-089-090-097-098-120700-
SOUTHWEST MINNESOTA

CITY           SKY/WX    TMP DP  RH WIND       PRES   REMARKS
FAIRMONT       CLOUDY    14   9  79 W8        30.21S WCI   3
JACKSON        CLOUDY    10   7  85 W8        30.21R WCI  -1
LUVERNE        CLOUDY    14  12  92 CALM      30.24S
MARSHALL       FLURRIES  16  13  88 NW14      30.24R WCI   2
6HR MIN TEMP:   6; 6HR MAX TEMP:  18; 6HR PCP: TRACE;

MONTEVIDEO     FLURRIES  16  10  79 N9        30.27R WCI   4
PIPESTONE      CLOUDY    18  10  73 NW3       30.20S
REDWOOD FALLS  CLOUDY    17  13  84 NW8       30.23S WCI   7
TRACY          CLOUDY    19  15  87 NW13      30.23R WCI   5
WINDOM         FLURRIES  10   9  92 W7        30.20S WCI   0
WORTHINGTON    CLOUDY    14   9  79 W9        30.22R WCI   2
$$

IAZ001>003-012>014-020>022-031-032-NEZ013-014-SDZ071-120700-
NORTHWEST IOWA

CITY           SKY/WX    TMP DP  RH WIND       PRES   REMARKS
ESTHERVILLE    CLOUDY    12   9  87 W9        30.21S WCI   0
SIOUX CITY     CLOUDY    20  15  81 NW5       30.26R WCI  13
6HR MIN TEMP:  19; 6HR MAX TEMP:  20; 6HR PCP:  0.06;

SPENCER        CLOUDY    11   7  84 NW7       30.23R WCI   0
6HR MIN TEMP:   6; 6HR MAX TEMP:  14; 6HR PCP: TRACE;

STORM LAKE     CLOUDY    14  14 100 W3        30.21S
$$

ABBREVIATIONS USED IN REMARKS
   TC - TEMPERATURE IN CELSIUS
  WCI - WIND CHILL INDEX
   HX - HEAT INDEX
  VSB - VISIBILITY




USA.gov is the U.S. government's official web portal to all federal, state and local government web resources and services.